This demonstration page uses our WeatherBlox Daily Observations layout. Learn more.

Left ArrowRight Arrow

Hourly Observations for May 6, 2022

Temp ( °F °C ) Dew Point ( °F °C ) Humidity (%) Winds ( mph kmh ) Pressure ( in mb ) Visibility ( mi km ) Precip ( " mm )
12:22 am 00:22 Cloudy with Rain 59 15 58 14.4 96 96 NE 12 19 29.69 1005 6 10 0.06 1.52
12:32 am 00:32 Cloudy with Thunderstorms 59 15 58 14.4 96 96 ENE 10 17 29.70 1006 7 11 0.08 2.03
12:52 am 00:52 Cloudy with Nearby Thunderstorms 59 15 58 14.4 96 96 NNE 15 24 29.66 1004 8 13 0.10 2.54
1:02 am 01:02 Cloudy with Light Rain 58 14.4 58 14.4 100 100 N 10 17 29.67 1005 9 14 0.01 0.25
1:17 am 01:17 Cloudy with Light Rain 58 14.4 58 14.4 100 100 ENE 10 17 29.65 1004 9 14 0.03 0.76
1:29 am 01:29 Cloudy with Light Rain 58 14.4 58 14.4 100 100 E 9 15 29.66 1004 10 16 0.04 1.02
1:40 am 01:40 Cloudy 58 14.4 58 14.4 100 100 ENE 5 7 29.67 1005 10 16 0.04 1.02
1:52 am 01:52 Cloudy 58 14.4 58 14.4 100 100 E 8 13 29.65 1004 10 16 0.04 1.02
2:52 am 02:52 Cloudy with Rain 58 14.4 57 13.9 97 97 NNE 3 6 29.65 1004 7 11 0.02 0.51
3:39 am 03:39 Cloudy with Light Rain 57 13.9 57 13.9 100 100 W 7 11 29.68 1005 7 11 0.06 1.52
3:48 am 03:48 Cloudy with Light Rain 57 14 57 14 100 100 W 8 13 29.68 1005 10 16 0.07 1.78
3:52 am 03:52 Cloudy with Light Rain 57 13.9 57 13.9 100 100 W 7 11 29.67 1005 10 16 0.07 1.78
4:15 am 04:15 Cloudy with Light Rain 57 13.9 56 13.3 96 96 WNW 9 15 29.67 1005 10 16 0.00 0.00
4:52 am 04:52 Cloudy with Rain 57 13.9 56 13.3 96 96 NNW 15 24 29.65 1004 7 11 0.04 1.02
5:22 am 05:22 Cloudy with Light Rain 56 13.3 55 12.8 97 97 N 16 26 29.67 1005 10 16 0.03 0.76
5:31 am 05:31 Cloudy with Light Rain 56 13.3 55 12.8 97 97 N 17 28 29.68 1005 10 16 0.03 0.76
5:52 am 05:52 Cloudy 55 12.8 54 12.2 96 96 N 15 24 29.68 1005 10 16 0.03 0.76
6:52 am 06:52 Cloudy 54 12.2 53 11.7 97 97 N 10 17 29.71 1006 10 16 0.00 0.00
7:52 am 07:52 Cloudy 54 12.2 53 11.7 97 97 NNW 10 17 29.74 1007 10 16 0.00 0.00
8:52 am 08:52 Cloudy with Mist and Fog 54 12.2 52 11.1 93 93 NNW 14 22 29.78 1009 6 10 0.00 0.00
9:52 am 09:52 Cloudy with Mist and Fog 55 12.8 53 11.7 93 93 NNW 13 20 29.80 1009 6 10 0.00 0.00
10:13 am 10:13 Cloudy with Light Rain 55 12.8 53 11.7 93 93 NNW 14 22 29.82 1010 5 8 0.00 0.00
10:24 am 10:24 Cloudy with Light Rain 55 12.8 53 11.7 93 93 NNW 14 22 29.82 1010 6 10 0.00 0.00
10:39 am 10:39 Cloudy with Mist and Fog 56 13.3 54 12.2 93 93 NW 13 20 29.83 1010 6 10 0.00 0.00
10:52 am 10:52 Cloudy 57 13.9 54 12.2 90 90 NW 17 28 29.82 1010 9 14 0.00 0.00
11:52 am 11:52 Cloudy 58 14.4 53 11.7 84 84 NW 13 20 29.82 1010 10 16 0.00 0.00
12:52 pm 12:52 Cloudy 60 15.6 53 11.7 78 78 NNW 16 26 29.82 1010 10 16 0.00 0.00
1:52 pm 13:52 Cloudy 61 16.1 53 11.7 75 75 NW 15 24 29.82 1010 10 16 0.00 0.00
2:50 pm 14:50 Mostly Cloudy 63 17 54 12 73 73 NNW 14 22 29.83 1010 10 16 0.00 0.00
2:52 pm 14:52 Mostly Cloudy 63 17.2 53 11.7 70 70 NNW 14 22 29.83 1010 10 16 0.00 0.00
3:52 pm 15:52 Cloudy 64 17.8 55 12.8 73 73 NNW 10 17 29.82 1010 10 16 0.00 0.00
4:52 pm 16:52 Cloudy 64 17.8 54 12.2 70 70 NW 12 19 29.81 1010 10 16 0.00 0.00
5:52 pm 17:52 Mostly Cloudy 63 17.2 53 11.7 70 70 NNW 10 17 29.82 1010 10 16 0.00 0.00
6:52 pm 18:52 Sunny 63 17.2 54 12.2 73 73 NW 10 17 29.82 1010 10 16 0.00 0.00
7:52 pm 19:52 Sunny 61 16.1 53 11.7 75 75 WNW 3 6 29.82 1010 10 16 0.00 0.00
8:52 pm 20:52 Clear 58 14.4 52 11.1 81 81 N 3 6 29.84 1011 10 16 0.00 0.00
9:52 pm 21:52 Clear 54 12.2 51 10.6 90 90 Calm 29.87 1011 10 16 0.00 0.00
10:52 pm 22:52 Clear 53 11.7 52 11.1 96 96 NNW 5 7 29.88 1012 10 16 0.00 0.00
11:52 pm 23:52 Clear 53 11.7 52 11.1 96 96 WNW 3 6 29.89 1012 10 16 0.00 0.00

Powered by AerisWeather